SCOUT A R/B, 1953

Orbit data source: Space-Track

SCOUT A R/B, 1953 is space debris in LEO originally from a launch on Fri, 28 Jan 1966 UTC launched from the Air Force Western Test Range (AFWTR). Debris objects in space refer to the collection of defunct objects orbiting the Earth. Examples of debris include non-operational satellites, rocket bodies, and fragments generated from explosions, collisions, or faulty payload assembly.

Loading next visibility...
Identifier
1953, 1966-005B
Orbit
LEO
Country
Flag of USUS
Related business
Manufacturer
ABL
Mission
Spacecraft
Bus & Motor
ALTAIR, Unknown motor
Mass
33 kg wet, 33 kg dry
Launch date (UTC)
1966-01-28 (60 years ago)
Launch vehicle
Unknown
Launch site
Air Force Western Test Range (AFWTR)
Object type
Payload
Rocket body
Debris
Shape & HBR
Unknown
Radar Cross Section
Medium (>0.1 m² and <1 m²)

Expand to show TLE details & history
Last TLE update: 12 hours ago

TLE from 12 hours ago
0 SCOUT A R/B
1 01953U 66005B   25293.16141913  .00000220  00000-0  21726-3 0  9997
2 01953  90.1516 348.9789 0227624 176.0210 184.2831 13.65015524970139
Epoch: 2025-10-20T03:52Z
TLE epoch observation values (Epoch: 2025-10-20T03:52:26.612Z)
Latitude
-0.00003°
Longitude
-97.99969°
Altitude
1,188.426 km
Speed
7.177 km/s
True Right ascension
23h 15m 54s
True Declination
0° 00' 00"
Sunlit
Object was in full shadow at epoch
Visualization orbit readout
Latitude
Unknown
Longitude
Unknown
Altitude
Unknown
Speed
Unknown
Apparent Right ascension
Unknown
Apparent Declination
Unknown
Sunlit
N/A
Visualization observer readout
Local Sidereal Time
10:58:56
Azimuth
Unknown
Elevation
Unknown
Doppler factor
Unknown
Orbital elements
Apogee altitude
1,182.821 km
Perigee altitude
846.271 km
Semi-major axis
7,392.683 km
Eccentricity
0.02276
Inclination
90.1516°
RAAN
348.9789°
Arg. of periapsis
176.021°
True anomaly
184.09368°
Mean anomaly
184.2831°
Eccentric anomaly
184.18786°
Mean motion
3.4146 °/min
Orbital period
105.43 mins
BSTAR
0.00021726
Loading maneuver chart data...
Computing Atmospheric mass density...
Loading historical data...
Loading historical data...
Loading historical data...
Loading historical data...
Loading historical data...
Loading historical data...
Loading historical data...

Documentation

Showing up to 5 results
|